KL1IO Weather Reports


Display with metric or nautical units.
time (UTC)temp
F
wind
direction
speed
MPH
gust
MPH
rain 1hr
in
rain 24hr
in
rain mn
in
humidity
%
barometer
mb
20260505073516 37 275 0.0 0.0 0.07 1.27 1.27 99 1010.9
20260505073014 37 275 0.0 0.0 0.00 1.26 1.26 99 1010.8
20260505072510 38 267 0.0 0.0 0.05 1.26 1.26 99 1011.0
20260505072006 38 267 0.0 0.0 0.05 1.26 1.26 99 1011.1
20260505071501 38 268 0.0 0.0 0.00 1.25 1.25 99 1010.9
20260505070959 39 263 0.0 0.0 0.00 1.25 1.25 99 1011.1
20260505070456 39 245 0.0 0.0 0.07 1.25 1.25 99 1011.2
20260505065952 39 227 0.0 2.0 0.07 1.25 1.25 99 1011.4
20260505065448 38 243 0.0 1.0 0.00 1.24 1.24 99 1011.1
20260505064945 38 248 0.0 0.0 0.00 1.24 1.24 99 1011.3
20260505064442 37 259 0.0 0.0 0.00 1.24 1.24 99 1011.1
20260505063940 38 272 0.0 0.0 0.00 1.24 1.24 99 1011.2
20260505063437 38 273 0.0 1.0 0.00 1.24 1.24 99 1011.3
20260505062933 38 262 0.0 1.0 0.00 1.24 1.24 99 1011.3
20260505062431 38 263 0.0 0.0 0.00 1.24 1.24 99 1011.4
20260505061927 38 268 0.0 0.0 0.00 1.24 1.24 99 1011.5
20260505061426 38 302 1.0 3.0 0.00 1.24 1.24 99 1011.6
20260505060923 39 323 3.0 3.0 0.00 1.24 1.24 99 1011.6
20260505060420 39 316 2.0 3.0 0.00 1.24 1.24 99 1011.6
20260505055916 39 309 1.0 3.0 0.00 1.24 1.24 99 1011.7
20260505055412 38 300 2.0 3.0 0.00 1.24 1.24 99 1011.9
20260505054909 38 358 3.0 3.0 0.00 1.24 1.24 99 1012.0
20260505054406 37 339 3.0 3.0 0.00 1.24 1.24 99 1012.1
20260505053904 38 273 0.0 2.0 0.00 1.24 1.24 99 1012.3
20260505053401 37 294 0.0 1.0 0.00 1.24 1.24 99 1012.3
20260505052857 38 279 0.0 0.0 0.00 1.24 1.24 99 1012.3
20260505052354 39 276 0.0 0.0 0.00 1.24 1.24 99 1012.2
20260505051852 38 284 0.0 0.0 0.00 1.24 1.24 99 1012.4
20260505051348 38 255 0.0 0.0 0.00 1.24 1.24 99 1012.5
20260505050847 38 247 0.0 0.0 0.05 1.24 1.24 99 1012.6
20260505050345 38 245 0.0 0.0 0.00 1.23 1.23 99 1012.7
20260505041313 39 268 0.0 0.0 0.00 1.23 1.23 99 1013.2
20260505040810 39 265 0.0 0.0 0.00 1.23 1.23 99 1013.5
20260505040308 39 326 1.0 2.0 0.00 1.23 1.23 99 1013.4
20260505035804 39 276 0.0 1.0 0.00 1.23 1.23 99 1013.4
20260505035259 38 278 0.0 0.0 0.00 1.23 1.23 99 1013.7
20260505034756 39 270 0.0 0.0 0.07 1.23 1.23 99 1013.8
20260505034253 39 275 0.0 0.0 0.07 1.23 1.23 99 1013.6
20260505033750 39 249 0.0 0.0 0.00 1.22 1.22 99 1013.9
20260505033248 39 248 0.0 0.0 0.00 1.22 1.22 99 1014.2
20260505032745 39 254 0.0 0.0 0.00 1.22 1.22 99 1014.1
20260505032241 39 248 0.0 0.0 0.00 1.22 1.22 99 1014.1
20260505031739 39 247 0.0 0.0 0.00 1.22 1.22 99 1014.4
20260505031235 39 247 0.0 0.0 0.00 1.22 1.22 99 1014.3
20260505030732 39 225 0.0 1.0 0.00 1.22 1.22 99 1014.6
20260505030228 39 247 0.0 0.0 0.00 1.22 1.22 99 1014.4
20260505025724 39 247 0.0 0.0 0.05 1.22 1.22 99 1014.6
20260505025222 39 213 0.0 1.0 0.05 1.22 1.22 99 1014.7
20260505024720 39 250 0.0 0.0 0.12 1.21 1.21 99 1014.6
20260505024217 39 247 0.0 0.0 0.19 1.21 1.21 99 1014.7
20260505023714 39 244 0.0 0.0 0.14 1.19 1.19 99 1014.8
20260505023211 39 188 1.0 1.0 0.12 1.18 1.18 99 1014.8
20260505022710 39 251 0.0 0.0 0.12 1.17 1.17 99 1015.1
20260505022206 39 166 1.0 2.0 0.19 1.16 1.16 99 1015.2
20260505021703 39 192 1.0 1.0 0.24 1.15 1.15 99 1015.3
20260505021200 39 206 1.0 1.0 0.24 1.13 1.13 99 1015.3
20260505020655 39 186 1.0 1.0 0.24 1.11 1.11 99 1015.3
20260505020151 39 271 0.0 0.0 0.24 1.09 1.09 99 1015.4
20260505015648 39 261 0.0 0.0 0.31 1.07 1.07 99 1015.5
20260505015145 39 252 0.0 0.0 0.31 1.05 1.05 99 1015.6
20260505014641 39 250 0.0 0.0 0.17 1.02 1.02 99 1015.7
20260505014139 39 241 0.0 0.0 0.12 1.00 1.00 99 1015.8
20260505013636 39 238 0.0 1.0 0.19 0.99 0.99 99 1016.2
20260505013134 39 156 2.0 2.0 0.17 0.98 0.98 99 1016.1
20260505012632 39 91 2.0 3.0 0.12 0.96 0.96 99 1015.9
20260505012128 39 228 0.0 2.0 0.12 0.95 0.95 99 1016.3
20260505011623 39 205 1.0 1.0 0.12 0.94 0.94 99 1015.9
20260505011121 39 223 0.0 0.0 0.14 0.93 0.93 99 1016.0
20260505010616 39 259 1.0 2.0 0.19 0.92 0.92 99 1015.9
20260505010113 39 265 0.0 0.0 0.19 0.90 0.90 99 1016.3
20260505005609 38 264 0.0 0.0 0.17 0.89 0.89 99 1016.3
20260505005102 38 264 0.0 0.0 0.12 0.87 0.87 99 1016.2
20260505004559 38 264 0.0 0.0 0.12 0.86 0.86 99 1016.3
20260505004055 39 264 0.0 0.0 0.12 0.85 0.85 99 1016.6
20260505003552 39 264 0.0 0.0 0.12 0.84 0.84 99 1016.9
20260505003050 39 265 0.0 0.0 0.12 0.83 0.83 99 1016.8
20260505002549 39 264 0.0 0.0 0.14 0.82 0.82 99 1016.6
20260505002043 39 264 0.0 0.0 0.12 0.81 0.81 99 1016.7
20260505001540 39 264 0.0 0.0 0.12 0.80 0.80 99 1016.7
20260505001037 39 264 0.0 0.0 0.12 0.79 0.79 99 1016.6
20260505000535 39 264 0.0 0.0 0.05 0.78 0.78 99 1016.9
20260505000032 39 264 0.0 0.0 0.07 0.77 0.77 99 1017.2
20260504235529 39 264 0.0 0.0 0.12 0.77 0.77 99 1017.1
20260504235025 39 264 0.0 0.0 0.07 0.75 0.75 99 1017.0
20260504234522 39 264 0.0 0.0 0.12 0.75 0.75 99 1017.4
20260504234019 39 265 0.0 1.0 0.05 0.74 0.74 99 1017.5
20260504233514 39 264 0.0 1.0 0.07 0.73 0.73 99 1017.3
20260504233012 39 263 1.0 1.0 0.07 0.73 0.73 99 1017.5
20260504232509 39 262 0.0 0.0 0.05 0.72 0.72 99 1017.8
20260504232006 39 263 0.0 1.0 0.05 0.72 0.72 99 1018.0
20260504231502 39 264 1.0 1.0 0.00 0.71 0.71 99 1018.0
20260504230959 39 265 2.0 2.0 0.00 0.71 0.71 99 1018.3
20260504230456 39 264 1.0 1.0 0.07 0.71 0.71 99 1018.3
20260504225955 40 260 0.0 0.0 0.00 0.70 0.70 99 1018.4
20260504225451 40 260 0.0 1.0 0.00 0.70 0.70 99 1018.6
20260504224948 40 250 1.0 1.0 0.00 0.70 0.70 99 1018.7
20260504224445 40 259 0.0 0.0 0.00 0.70 0.70 99 1018.7
20260504223942 41 257 0.0 0.0 0.00 0.70 0.70 99 1018.8
20260504223438 41 257 0.0 0.0 0.00 0.70 0.70 99 1018.9
20260504222933 41 257 0.0 0.0 0.00 0.70 0.70 99 1019.0
20260504222431 41 256 0.0 0.0 0.00 0.70 0.70 99 1019.3
20260504221929 40 256 0.0 0.0 0.00 0.70 0.70 99 1019.3
20260504221426 40 253 0.0 0.0 0.00 0.70 0.70 99 1019.4
20260504220923 40 247 0.0 0.0 0.00 0.70 0.70 99 1019.3
20260504220419 40 246 0.0 0.0 0.05 0.70 0.70 99 1019.4
20260504215916 40 241 0.0 0.0 0.05 0.70 0.70 99 1019.4
20260504215413 39 241 0.0 0.0 0.00 0.69 0.69 99 1019.6
20260504214909 39 240 0.0 0.0 0.00 0.69 0.69 99 1019.7
20260504214406 39 239 0.0 1.0 0.00 0.69 0.69 99 1019.8
20260504213903 39 239 0.0 0.0 0.07 0.69 0.69 99 1019.7
20260504213359 39 232 0.0 2.0 0.07 0.69 0.69 99 1019.7
20260504212857 39 219 0.0 2.0 0.00 0.68 0.68 99 1020.0
20260504212352 39 188 0.0 1.0 0.07 0.68 0.68 99 1020.0
20260504211850 39 234 0.0 0.0 0.07 0.68 0.68 99 1019.9
20260504211346 39 259 0.0 0.0 0.00 0.67 0.67 99 1020.0
20260504210844 38 256 0.0 0.0 0.00 0.67 0.67 99 1020.0
20260504210340 39 255 0.0 0.0 0.00 0.67 0.67 99 1020.3
20260504205837 38 242 0.0 1.0 0.00 0.67 0.67 99 1020.5
20260504205335 38 241 0.0 1.0 0.00 0.67 0.67 99 1020.6
20260504204833 38 209 1.0 1.0 0.00 0.67 0.67 99 1020.5
20260504204332 38 258 0.0 0.0 0.00 0.67 0.67 99 1020.4
20260504203830 38 260 0.0 0.0 0.00 0.67 0.67 99 1020.5
20260504203327 38 257 0.0 0.0 0.00 0.67 0.67 99 1021.0
20260504202823 38 257 0.0 0.0 0.00 0.67 0.67 99 1020.9
20260504202320 38 248 0.0 0.0 0.05 0.67 0.67 99 1021.1
20260504201817 37 244 0.0 1.0 0.05 0.67 0.67 99 1021.3
20260504201314 38 265 0.0 0.0 0.00 0.66 0.66 99 1021.1
20260504200811 38 265 0.0 0.0 0.00 0.66 0.66 99 1021.2
20260504200308 37 266 0.0 0.0 0.00 0.66 0.66 99 1021.2
20260504195804 37 264 0.0 0.0 0.07 0.66 0.66 99 1021.3
20260504195300 37 269 0.0 0.0 0.07 0.66 0.66 99 1021.5
20260504194757 37 262 0.0 0.0 0.05 0.65 0.65 99 1021.5
20260504194253 37 249 0.0 0.0 0.05 0.65 0.65 99 1021.7
20260504193749 36 249 0.0 0.0 0.00 0.64 0.64 99 1021.7
20260504193247 36 249 0.0 0.0 0.07 0.64 0.64 99 1021.8
20260504192745 36 246 0.0 0.0 0.05 0.63 0.63 99 1021.9
20260504192243 36 252 0.0 0.0 0.05 0.63 0.63 99 1021.8
20260504191741 36 252 0.0 1.0 0.07 0.62 0.62 99 1021.9
20260504191238 36 252 0.0 0.0 0.07 0.62 0.62 99 1022.1
20260504190733 36 252 0.0 0.0 0.05 0.61 0.61 99 1022.2
20260504190230 36 241 0.0 0.0 0.07 0.60 0.60 99 1022.3
20260504185727 36 244 0.0 0.0 0.12 0.60 0.60 99 1022.2
20260504185224 36 242 0.0 0.0 0.12 0.59 0.59 99 1022.1
20260504184720 36 242 0.0 0.0 0.12 0.58 0.58 99 1022.2
20260504184216 35 239 0.0 0.0 0.12 0.57 0.57 99 1022.2
20260504183712 35 229 0.0 1.0 0.14 0.56 0.56 99 1022.3
20260504183209 35 222 0.0 0.0 0.07 0.55 0.55 99 1022.4
20260504182707 35 197 0.0 1.0 0.12 0.54 0.54 99 1022.5
20260504182204 35 188 1.0 1.0 0.12 0.54 0.54 99 1022.6
20260504181701 35 224 0.0 2.0 0.05 0.52 0.52 99 1022.5
20260504181159 35 201 0.0 2.0 0.12 0.51 0.51 99 1022.6
20260504180658 35 222 0.0 0.0 0.12 0.51 0.51 99 1022.6
20260504180156 35 177 1.0 1.0 0.00 0.49 0.49 99 1022.6
20260504175653 35 170 0.0 1.0 0.00 0.49 0.49 99 1022.9
20260504175149 35 222 0.0 0.0 0.00 0.49 0.49 99 1023.0
20260504174647 35 235 0.0 0.0 0.00 0.49 0.49 99 1023.0
20260504174144 34 235 0.0 0.0 0.00 0.49 0.49 99 1022.9
20260504173641 35 229 0.0 0.0 0.00 0.49 0.49 99 1023.0
20260504173138 34 244 0.0 0.0 0.00 0.49 0.49 99 1023.0
20260504172635 34 235 0.0 0.0 0.00 0.49 0.49 99 1023.0
20260504172131 34 268 0.0 0.0 0.00 0.49 0.49 99 1023.2
20260504171627 34 275 0.0 0.0 0.00 0.49 0.49 99 1023.1
20260504171125 34 271 0.0 0.0 0.00 0.49 0.49 99 1023.2
20260504170621 34 269 0.0 0.0 0.00 0.49 0.49 99 1023.2
20260504170119 34 269 0.0 0.0 0.00 0.49 0.49 99 1023.3
20260504151004 33 230 0.0 0.0 0.07 0.38 0.38 99 1023.9
20260504150502 33 230 0.0 0.0 0.05 0.37 0.37 99 1023.7
20260504140927 32 229 0.0 0.0 0.07 0.32 0.32 99 1024.3
20260504140424 32 230 0.0 0.0 0.07 0.31 0.31 99 1024.2
20260504130349 32 229 0.0 0.0 0.05 0.24 0.24 99 1024.2
20260504120311 32 229 0.0 0.0 0.12 0.18 0.18 99 1024.7
20260504110235 32 239 0.0 0.0 0.05 0.09 0.09 99 1025.3
20260504100159 32 245 0.0 0.0 0.00 0.04 0.04 99 1025.4
20260504090117 32 244 0.0 0.0 0.00 0.03 0.03 99 1025.5
20260504081547 32 241 0.0 1.0 0.07 0.01 0.01 99 1025.4
20260504081043 32 253 0.0 0.0 0.00 0.00 0.00 99 1025.4
20260504080540 32 244 0.0 0.0 0.00 0.00 0.00 99 1025.5